Location: Newark
(35.0033°N, 81.0878°W)
Time: 21:27:56
(UTC+00:00)

Tiangong 2 - Visible Passes

Search period start: 18 July 2019 00:00
Search period end: 28 July 2019 00:00
Orbit: 378 x 386 km, 42.8° (Epoch: 18 July)

Date Brightness Start Highest point End Pass type
(mag) Time Alt. Az. Time Alt. Az. Time Alt. Az.
18 Jul 3.4 01:48:03 10° NW 01:50:29 20° N 01:52:54 10° ENE visible
18 Jul 3.8 03:24:30 10° NW 03:25:33 19° NW 03:25:33 19° NW visible
19 Jul 2.3 02:24:16 10° NW 02:27:09 33° NNE 02:27:43 30° NE visible
20 Jul 3.0 01:24:00 10° NW 01:26:39 24° NNE 01:29:17 10° ENE visible
20 Jul 3.1 03:00:27 10° WNW 03:02:03 27° WNW 03:02:03 27° WNW visible
21 Jul 1.6 02:00:08 10° NW 02:03:12 52° NNE 02:04:16 33° E visible
22 Jul 2.4 00:59:53 10° NW 01:02:45 32° NNE 01:05:37 10° E visible
22 Jul 2.4 02:36:30 10° WNW 02:38:40 33° WSW 02:38:40 33° WSW visible
23 Jul 1.0 01:36:02 10° WNW 01:39:11 87° SSW 01:40:57 23° ESE visible
24 Jul 2.8 02:12:48 10° W 02:15:17 22° SW 02:15:26 22° SSW visible
25 Jul 1.8 01:12:03 10° WNW 01:15:03 44° SSW 01:17:49 11° SE visible
26 Jul 3.7 01:49:54 10° WSW 01:51:02 11° SW 01:52:08 10° SSW visible
